Regional Weather Roundup
Issued by NWS

Home | Current Version | Previous Version | Graphics & Text | Print | Product List | Glossary Off
Versions: 1 2 3 4 5 6 7 8 9 10 11 12 13 14 15 16 17 18 19 20 21 22 23 24 25 26 27 28 29 30 31 32 33 34 35 36 37 38 39 40 41 42 43 44 45 46 47 48 49 50

000
ASUS43 KLMK 301910
RWRKY
KENTUCKY REGIONAL WEATHER ROUNDUP
NATIONAL WEATHER SERVICE LOUISVILLE KY
300 PM EDT SAT JUL 30 2016

NOTE "FAIR" INDICATES FEW OR NO CLOUDS BELOW 12,000 FEET
WITH NO SIGNIFICANT WEATHER AND/OR OBSTRUCTIONS TO VISIBILITY.

KYZ001>023-026-027-061>063-070>075-302000-
WESTERN AND SOUTH CENTRAL KENTUCKY

CITY           SKY/WX    TMP DP  RH WIND       PRES   REMARKS
PADUCAH        MOSUNNY   83  72  69 VRB5      29.98F
HENDERSON      MOSUNNY   86  72  62 W6        29.96F HX  92
OWENSBORO      PTSUNNY   86  73  64 W9        29.97F HX  93
HOPKINSVILLE   SUNNY     85  71  63 NW8       29.98F HX  91
BOWLING GREEN  MOSUNNY   85  71  63 SW7       29.98F HX  90
GLASGOW        CLOUDY    83  70  65 S5        29.99F
$$

KYZ024-025-028>034-038-045-046-053-302000-
NORTH CENTRAL KENTUCKY

CITY           SKY/WX    TMP DP  RH WIND       PRES   REMARKS
LOUISVILLE/SDF TSTM      73  71  93 NW13      29.99R
LOUISVILLE/LOU TSTM      74  70  87 NW22G29   29.99R FOG
FORT KNOX      MOSUNNY   86  71  62 S9        29.96F HX  91
$$

KYZ035>037-039>044-047>052-055>060-089>105-302000-
NORTHEAST KENTUCKY

CITY           SKY/WX    TMP DP  RH WIND       PRES   REMARKS
LEXINGTON      PTSUNNY   85  68  56 W7        29.99F
COVINGTON      PTSUNNY   85  68  56 W5        29.96F
FRANKFORT      MOSUNNY   85  70  60 SW8       29.97F
$$

KYZ054-064>069-076>088-106>120-302000-
SOUTHEAST KENTUCKY

CITY           SKY/WX    TMP DP  RH WIND       PRES   REMARKS
JACKSON        SUNNY     84  71  65 VRB3      30.01F
LONDON         SUNNY     84  67  56 SW7       30.01F
SOMERSET       MOSUNNY   81  70  69 SW9       30.02F
MIDDLESBORO    PTSUNNY   85  71  64 S5        30.01F HX  90
MONTICELLO     PTCLDY   N/A N/A N/A W15       30.03F
$$





USA.gov is the U.S. government's official web portal to all federal, state and local government web resources and services.